Cedar Rapids, IA

9:26 AM CST on December 14, 2017 (GMT -0600)
The Eastern Iowa Airport

Weather History for KCID - March, 2014

Change the Weather History Date:

Sunday, March 23, 2014

  Actual Average Record
Temperature  
Mean Temperature 23 °F 40 °F  
Max Temperature 31 °F 50 °F 87 °F (1910)
Min Temperature 15 °F 29 °F 1 °F (1912)
Degree Days  
Heating Degree Days 42 25  
Month to date heating degree days 845 693  
Since 1 July heating degree days 6884 5976  
Cooling Degree Days 0 0  
Month to date cooling degree days 0 0  
Year to date cooling degree days 0 0  
Moisture  
Dew Point 7 °F    
Average Humidity 51    
Maximum Humidity 67    
Minimum Humidity 34    
Precipitation  
Precipitation 0.00 in 0.07 in 0.49 in (2016)
Month to date precipitation 0.19 1.50  
Year to date precipitation 1.94 3.64  
Sea Level Pressure  
Sea Level Pressure 30.47 in    
Wind  
Wind Speed 10 mph (NNW)    
Max Wind Speed 22 mph    
Max Gust Speed 26 mph    
Visibility 10 miles    
Events      
T = Trace of Precipitation, MM = Missing Value Source: NWS Daily Summary

Daily Weather History Graph

Daily Weather History Graph

Search for Another Location

Airport or City:

Trip Planner

Search our weather history database for the weather conditions in past years. The results will help you decide how hot, cold, wet, or windy it might be!

Date:

Astronomy

Mar. 23, 2014 Rise Set
Actual Time 7:04 AM CDT 7:22 PM CDT
Civil Twilight 6:37 AM CDT 7:50 PM CDT
Nautical Twilight 6:04 AM CDT 8:23 PM CDT
Astronomical Twilight 5:31 AM CDT 8:56 PM CDT
Moon 1:44 AM CDT (3/23) 11:42 AM CDT (3/23)
Length of Visible Light 13h 13m
Length of Day
12h 17m
Waning Gibbous, 54% of the Moon is Illuminated
Mar 23
Waning Gibbous
Mar 23
Last Quarter
Mar 30
New
Apr 7
First Quarter
Apr 15
Full

Hourly Weather History & Observations

Time (CDT) Temp. Windchill Dew Point Humidity Pressure Visibility Wind Dir Wind Speed Gust Speed Precip Events Conditions
12:52 AM 21.9 °F 7.3 °F 10.0 °F 60% 30.47 in 10.0 mi NNW 18.4 mph - N/A   Partly Cloudy
1:52 AM 21.0 °F 6.6 °F 9.0 °F 60% 30.48 in 10.0 mi NNW 17.3 mph - N/A   Partly Cloudy
2:52 AM 19.9 °F 4.3 °F 7.0 °F 57% 30.49 in 10.0 mi North 19.6 mph - N/A   Clear
3:52 AM 18.0 °F 6.1 °F 8.1 °F 65% 30.50 in 10.0 mi NNW 10.4 mph - N/A   Scattered Clouds
4:04 AM 18.0 °F 6.1 °F 9.0 °F 68% 30.46 in 10.0 mi North 10.4 mph - N/A   Mostly Cloudy
4:43 AM 17.1 °F 2.5 °F 7.0 °F 65% 30.46 in 10.0 mi North 15.0 mph - N/A   Partly Cloudy
4:52 AM 17.1 °F 3.6 °F 6.1 °F 62% 30.50 in 10.0 mi North 12.7 mph - N/A   Partly Cloudy
5:52 AM 16.0 °F 2.9 °F 6.1 °F 65% 30.51 in 10.0 mi North 11.5 mph - N/A   Clear
6:52 AM 15.1 °F 3.3 °F 6.1 °F 68% 30.53 in 10.0 mi North 9.2 mph - N/A   Clear
7:52 AM 16.0 °F 3.6 °F 5.0 °F 62% 30.54 in 10.0 mi North 10.4 mph - N/A   Clear
8:52 AM 19.0 °F 6.8 °F 3.9 °F 52% 30.54 in 10.0 mi North 11.5 mph - N/A   Clear
9:52 AM 19.9 °F 10.1 °F 3.9 °F 50% 30.54 in 10.0 mi NNW 8.1 mph - N/A   Clear
10:52 AM 23.0 °F 14.7 °F 3.9 °F 44% 30.53 in 10.0 mi North 6.9 mph - N/A   Clear
11:52 AM 24.1 °F 14.4 °F 3.9 °F 42% 30.52 in 10.0 mi WNW 9.2 mph - N/A   Clear
12:52 PM 26.1 °F 16.2 °F 3.9 °F 39% 30.50 in 10.0 mi WNW 10.4 mph - N/A   Clear
1:52 PM 28.0 °F 17.5 °F 3.9 °F 36% 30.47 in 10.0 mi NW 12.7 mph - N/A   Clear
2:52 PM 30.0 °F 20.0 °F 6.1 °F 36% 30.46 in 10.0 mi WNW 12.7 mph 20.7 mph N/A   Partly Cloudy
3:52 PM 30.0 °F 20.0 °F 7.0 °F 38% 30.45 in 10.0 mi WNW 12.7 mph 19.6 mph N/A   Partly Cloudy
4:52 PM 30.0 °F 21.7 °F 6.1 °F 36% 30.43 in 10.0 mi NW 9.2 mph - N/A   Clear
5:52 PM 28.9 °F 19.2 °F 6.1 °F 38% 30.42 in 10.0 mi NW 11.5 mph - N/A   Clear
6:52 PM 27.0 °F 18.7 °F 7.0 °F 43% 30.40 in 10.0 mi NW 8.1 mph 17.3 mph N/A   Clear
7:52 PM 24.1 °F 17.0 °F 10.0 °F 55% 30.40 in 10.0 mi North 5.8 mph - N/A   Clear
8:52 PM 21.9 °F 12.5 °F 10.0 °F 60% 30.41 in 10.0 mi North 8.1 mph - N/A   Clear
9:52 PM 21.9 °F 13.4 °F 10.9 °F 63% 30.42 in 10.0 mi North 6.9 mph - N/A   Partly Cloudy
10:52 PM 21.9 °F 14.5 °F 10.9 °F 63% 30.42 in 10.0 mi North 5.8 mph - N/A   Mostly Cloudy
11:52 PM 21.0 °F 14.6 °F 10.0 °F 63% 30.43 in 10.0 mi ENE 4.6 mph - N/A   Overcast